Content
SEND FEEDBACK

Daily
Averages
Monthly
Summary
United States of America

STATEN ISLAND, NEW YORK


Home > North America > United States > New York
Elevation: 152 feet     Latitude: 40 35N     Longitude: 074 09W

WEATHER
 
SELECT A DAY
Number of Records: 193,141;   Date Range: 1/1/95 - 11/20/14
 
SHARE

PRINT THIS DATA

[ ← Previous Day ]
WEATHER ALMANAC - FEBRUARY 18, 2013
[ Next Day → ]
[ °C ]   °F
Weather ElementAverageHighLow
Temperature27.6 °F37 °F (2:51 pm)17.1 °F (4:51 am)
Dewpoint4.8 °F12.9 °F (11:51 pm) (7:00 pm)
Humidity39.2 %52 % (4:51 am)25 % (2:51 pm)
Barometer30.19 in30.26 in (10:51 am)30.05 in (1:51 am)
Wind Speed12.8 mph25.3 mph (1:51 am)
Wind Gust33.4 mph (1:51 am)
Weather ElementAverage
Visibility10 mi
Wind DirectionW (268.3 °)

Weather ElementTotal
Precipitation---
Heating Degree Days38 (Base 65)
Averaged from 23 records on February 18, 2013
WEATHER CONDITIONS BREAKOUT
WIND DIRECTION BREAKOUT
WEATHER BY HOUR - FEBRUARY 18, 2013
[ °C ]   °F
Local TimeTemperatureDewpointHumidityBarometerVisibilityWind DirectionWind SpeedGust SpeedPrecipitationEventsConditions
1:51 AM19.0 °F0.0 °F43 %30.05 in10.0 miWNW (290°)25.3 mph33.4 mphClear
2:51 AM18.0 °F1.0 °F48 %30.07 in10.0 miWNW (300°)17.3 mph26.5 mphClear
3:51 AM18.0 °F1.9 °F50 %30.10 in10.0 miWNW (300°)15.0 mph23.0 mphClear
4:51 AM17.1 °F1.9 °F52 %30.13 in10.0 miWNW (290°)13.8 mph26.5 mphClear
5:51 AM17.1 °F1.9 °F52 %30.17 in10.0 miWNW (300°)12.7 mphClear
6:51 AM17.1 °F1.9 °F52 %30.19 in10.0 miNW (310°)15.0 mph23.0 mphClear
7:51 AM19.0 °F1.9 °F47 %30.22 in10.0 miWNW (300°)10.4 mph19.6 mphClear
8:51 AM21.9 °F3.0 °F44 %30.24 in10.0 miWNW (300°)15.0 mphClear
9:51 AM25.0 °F3.0 °F39 %30.25 in10.0 miWNW (300°)15.0 mphClear
10:51 AM28.4 °F3.2 °F34 %30.26 in10.0 miWNW (290°)15.0 mphClear
11:51 AM30.9 °F3.9 °F32 %30.25 in10.0 miWest (280°)15.0 mph21.9 mphPartly Cloudy
12:51 PM33.1 °F3.0 °F28 %30.23 in10.0 miWNW (290°)20.7 mph26.5 mphPartly Cloudy
1:51 PM35.1 °F3.9 °F27 %30.20 in10.0 miWest (280°)12.7 mph23.0 mphPartly Cloudy
2:51 PM37.0 °F3.9 °F25 %30.19 in10.0 miWNW (300°)13.8 mph18.4 mphPartly Cloudy
3:51 PM37.0 °F3.9 °F25 %30.19 in10.0 miWest (280°)10.4 mphPartly Cloudy
4:51 PM36.0 °F5.0 °F27 %30.20 in10.0 miWest (260°)11.5 mphScattered Clouds
5:51 PM34.0 °F6.1 °F31 %30.20 in10.0 miWSW (250°)9.2 mphScattered Clouds
6:51 PM33.1 °F7.0 °F34 %30.22 in10.0 miSW (230°)10.4 mphScattered Clouds
7:51 PM32.0 °F9.0 °F38 %30.22 in10.0 miSW (230°)10.4 mphScattered Clouds
8:51 PM30.9 °F10.0 °F42 %30.22 in10.0 miSSW (210°)6.9 mphScattered Clouds
9:51 PM30.9 °F10.9 °F43 %30.22 in10.0 miSW (220°)5.8 mphMostly Cloudy
10:51 PM32.0 °F12.0 °F44 %30.22 in10.0 miSouth (190°)5.8 mphMostly Cloudy
11:51 PM32.0 °F12.9 °F45 %30.21 in10.0 miSouth (170°)6.9 mphMostly Cloudy
Hourly data recorded from KEWR, located miles away from Staten Island, New York







STORIES FROM OUR PARTNERS